{"data":{"norad_id":64327,"epoch":"2026-05-24T18:32:19.822560Z","epoch_age_seconds":84770,"freshness":"FRESH","line1":"1 64327U 25124L   26144.77245165  .00082506  00000+0  63932-3 0  9996","line2":"2 64327  42.9980 290.3037 0001121 250.5997 109.4750 15.70869884 54801","mean_motion":15.70869884,"eccentricity":0.0001121,"inclination_deg":42.998,"raan_deg":290.3037,"arg_perigee_deg":250.5997,"mean_anomaly_deg":109.475,"bstar":0.00063932,"rev_number":5480,"period_min":91.668954549771,"perigee_km":355.65470617843,"apogee_km":357.16459153711,"semimajor_km":6734.5466488578,"source":"CELESTRAK","updated_at":"2026-05-25T13:38:20.395786Z"}}